DW2182 Weather Reports


Display with metric or nautical units.
time (UTC)temp
F
wind
direction
speed
MPH
gust
MPH
rain 1hr
in
rain 24hr
in
rain mn
in
humidity
%
barometer
mb
20260509230517 62 0 6.0 11.0 0.00 0.00 0.00 26 1011.2
20260509225516 62 158 9.0 17.0 0.00 0.00 0.00 25 1011.1
20260509224517 62 158 7.0 16.0 0.00 0.00 0.00 24 1010.8
20260509223516 63 0 7.0 14.0 0.00 0.00 0.00 25 1010.7
20260509222516 63 135 8.0 18.0 0.00 0.00 0.00 25 1010.6
20260509221536 63 158 9.0 17.0 0.00 0.00 0.00 24 1010.5
20260509220517 64 135 9.0 16.0 0.00 0.00 0.00 23 1010.5
20260509215517 64 135 8.0 21.0 0.00 0.00 0.00 23 1010.6
20260509214516 64 135 8.0 15.0 0.00 0.00 0.00 24 1010.4
20260509213556 64 158 8.0 17.0 0.00 0.00 0.00 23 1010.3
20260509212536 64 135 9.0 18.0 0.00 0.00 0.00 22 1010.2
20260509211516 64 158 7.0 18.0 0.00 0.00 0.00 25 1010.1
20260509210516 64 158 11.0 21.0 0.00 0.00 0.00 22 1010.0
20260509205537 65 158 10.0 18.0 0.00 0.00 0.00 22 1009.9
20260509204516 65 158 9.0 21.0 0.00 0.00 0.00 22 1009.8
20260509203516 65 135 8.0 17.0 0.00 0.00 0.00 25 1009.6
20260509202517 65 158 8.0 21.0 0.00 0.00 0.00 25 1009.6
20260509201516 65 158 8.0 19.0 0.00 0.00 0.00 26 1009.6
20260509200516 65 158 8.0 16.0 0.00 0.00 0.00 26 1009.5
20260509195516 66 135 9.0 17.0 0.00 0.00 0.00 27 1009.4
20260509194516 65 135 8.0 21.0 0.00 0.00 0.00 28 1009.3
20260509193517 65 135 9.0 19.0 0.00 0.00 0.00 26 1009.3
20260509192517 65 135 9.0 17.0 0.00 0.00 0.00 27 1009.2
20260509191516 65 158 9.0 17.0 0.00 0.00 0.00 28 1009.2
20260509190516 64 158 9.0 19.0 0.00 0.00 0.00 28 1009.1
20260509185536 65 158 9.0 14.0 0.00 0.00 0.00 28 1009.1
20260509184556 65 158 8.0 22.0 0.00 0.00 0.00 27 1009.1
20260509183536 65 135 9.0 16.0 0.00 0.00 0.00 28 1009.0
20260509182516 65 158 8.0 14.0 0.00 0.00 0.00 31 1008.8
20260509181516 65 158 10.0 19.0 0.00 0.00 0.00 29 1008.8
20260509180516 65 158 9.0 23.0 0.00 0.00 0.00 31 1008.9
20260509175516 65 135 7.0 14.0 0.00 0.00 0.00 31 1008.9
20260509174536 64 135 8.0 17.0 0.00 0.00 0.00 33 1008.7
20260509173516 64 158 11.0 19.0 0.00 0.00 0.00 32 1008.7
20260509172516 64 158 10.0 23.0 0.00 0.00 0.00 32 1008.7
20260509171537 64 158 9.0 19.0 0.00 0.00 0.00 35 1008.6
20260509170516 63 135 10.0 18.0 0.00 0.00 0.00 34 1008.7
20260509165516 63 135 7.0 12.0 0.00 0.00 0.00 35 1008.7
20260509164536 62 23 6.0 16.0 0.00 0.00 0.00 35 1008.6
20260509163516 62 158 9.0 19.0 0.00 0.00 0.00 35 1008.4
20260509162536 61 158 9.0 18.0 0.00 0.00 0.00 37 1008.6
20260509161516 60 158 8.0 16.0 0.00 0.00 0.00 41 1008.3
20260509160516 60 158 10.0 22.0 0.00 0.00 0.00 41 1008.3
20260509155556 59 158 7.0 15.0 0.00 0.00 0.00 47 1008.2
20260509154516 58 158 10.0 17.0 0.00 0.00 0.00 50 1008.2
20260509153516 57 135 6.0 13.0 0.00 0.00 0.00 53 1007.9
20260509152536 57 158 8.0 22.0 0.00 0.00 0.00 55 1008.0
20260509151516 56 158 7.0 14.0 0.00 0.00 0.00 56 1007.9
20260509150516 56 158 6.0 13.0 0.00 0.00 0.00 59 1007.6
20260509145516 56 158 7.0 13.0 0.00 0.00 0.00 61 1007.4
20260509144516 56 158 9.0 17.0 0.00 0.00 0.00 61 1007.2
20260509143516 55 158 8.0 15.0 0.00 0.00 0.00 66 1007.3
20260509142536 55 158 8.0 15.0 0.00 0.00 0.00 67 1007.1
20260509141516 56 158 9.0 16.0 0.00 0.00 0.00 66 1007.2
20260509140516 56 158 8.0 16.0 0.00 0.00 0.00 67 1007.1
20260509135516 56 158 8.0 16.0 0.00 0.00 0.00 65 1007.0
20260509134516 56 158 9.0 20.0 0.00 0.00 0.00 66 1006.8
20260509133637 56 135 8.0 14.0 0.00 0.00 0.00 67 1006.5
20260509132516 56 135 7.0 12.0 0.00 0.00 0.00 68 1006.3
20260509131516 56 135 8.0 14.0 0.00 0.00 0.00 69 1006.1
20260509130516 56 135 8.0 20.0 0.00 0.00 0.00 70 1005.7
20260509125516 55 135 8.0 16.0 0.00 0.00 0.00 70 1005.7
20260509124516 55 135 7.0 15.0 0.00 0.00 0.00 67 1005.6
20260509123515 54 135 6.0 11.0 0.00 0.00 0.00 65 1005.6
20260509122536 53 135 6.0 12.0 0.00 0.00 0.00 64 1005.4
20260509121516 53 135 4.0 7.0 0.00 0.00 0.00 65 1005.1
20260509120516 52 135 3.0 8.0 0.00 0.00 0.00 65 1004.9
20260509115515 52 135 2.0 4.0 0.00 0.00 0.00 62 1004.8
20260509114515 52 135 1.0 3.0 0.00 0.00 0.00 60 1004.6
20260509113516 52 0.0 1.0 0.00 0.00 0.00 59 1004.6
20260509112516 52 135 2.0 3.0 0.00 0.00 0.00 59 1005.0
20260509111515 52 113 2.0 4.0 0.00 0.00 0.00 57 1004.8
20260509110515 52 135 2.0 5.0 0.00 0.00 0.00 57 1004.7
20260509105516 52 135 1.0 3.0 0.00 0.00 0.00 56 1004.7
20260509104516 53 135 3.0 7.0 0.00 0.00 0.00 55 1004.5
20260509103515 53 135 2.0 8.0 0.00 0.00 0.00 53 1004.7
20260509102515 53 135 3.0 6.0 0.00 0.00 0.00 52 1004.6
20260509101515 53 135 3.0 10.0 0.00 0.00 0.00 50 1004.6
20260509100515 53 135 3.0 7.0 0.00 0.00 0.00 51 1004.2
20260509095535 52 135 4.0 7.0 0.00 0.00 0.00 51 1004.0
20260509094538 52 135 3.0 5.0 0.00 0.00 0.00 52 1003.7
20260509093515 51 135 4.0 8.0 0.00 0.00 0.00 53 1004.1
20260509092517 50 135 6.0 17.0 0.00 0.00 0.00 53 1004.1
20260509091516 49 113 3.0 6.0 0.00 0.00 0.00 55 1002.4
20260509090517 49 90 3.0 4.0 0.00 0.00 0.00 55 1002.4
20260509085537 49 90 2.0 4.0 0.00 0.00 0.00 55 1002.4
20260509084517 48 90 2.0 4.0 0.00 0.00 0.00 55 1002.3
20260509083518 48 90 2.0 4.0 0.00 0.00 0.00 56 1002.2
20260509082517 48 90 2.0 3.0 0.00 0.00 0.00 55 1002.2
20260509081517 48 90 2.0 4.0 0.00 0.00 0.00 56 1002.1
20260509080538 48 90 2.0 4.0 0.00 0.00 0.00 56 1002.2
20260509075518 48 90 2.0 3.0 0.00 0.00 0.00 56 1002.3
20260509074518 48 90 1.0 2.0 0.00 0.00 0.00 57 1002.1
20260509073518 48 90 2.0 3.0 0.00 0.00 0.00 58 1002.2
20260509072537 48 0.0 0.0 0.00 0.00 0.00 56 1002.6
20260509071517 48 0.0 0.0 0.00 0.00 0.00 56 1002.9
20260509070517 48 0.0 0.0 0.00 0.00 0.00 58 1002.9
20260509065519 49 0.0 0.0 0.00 0.00 0.00 57 1002.9
20260509064518 49 0.0 0.0 0.00 0.00 0.00 55 1003.2
20260509063518 50 0.0 0.0 0.00 0.00 0.00 54 1003.3
20260509062517 50 135 1.0 2.0 0.00 0.00 0.00 53 1003.4
20260509061517 51 0.0 0.0 0.00 0.00 0.00 53 1003.6
20260509060517 52 0.0 0.0 0.00 0.00 0.00 52 1003.6
20260509055517 53 0.0 0.0 0.00 0.00 0.00 51 1004.0
20260509054517 53 0.0 0.0 0.00 0.00 0.00 51 1003.8
20260509053517 54 0.0 0.0 0.00 0.00 0.00 47 1004.0
20260509052517 55 0.0 0.0 0.00 0.00 0.00 45 1004.2
20260509051517 56 0.0 0.0 0.00 0.00 0.00 44 1004.2
20260509050517 57 0.0 0.0 0.00 0.00 0.00 41 1004.2
20260509045518 57 0.0 0.0 0.00 0.00 0.00 39 1004.4
20260509044517 58 135 1.0 2.0 0.00 0.00 0.00 37 1004.4
20260509043516 58 135 1.0 2.0 0.00 0.00 0.00 37 1004.5
20260509042517 59 135 1.0 2.0 0.00 0.00 0.00 36 1004.5
20260509041518 59 135 1.0 2.0 0.00 0.00 0.00 36 1004.5
20260509040537 60 135 1.0 3.0 0.00 0.00 0.00 35 1004.6
20260509035518 61 0.0 2.0 0.00 0.00 0.00 34 1004.6
20260509034518 61 0.0 1.0 0.00 0.00 0.00 33 1004.5
20260509033518 62 135 1.0 3.0 0.00 0.00 0.00 33 1004.4
20260509032518 62 135 1.0 3.0 0.00 0.00 0.00 32 1004.4
20260509031537 63 158 2.0 5.0 0.00 0.00 0.00 32 1004.4
20260509030517 63 135 3.0 9.0 0.00 0.00 0.00 31 1004.3
20260509025517 64 135 3.0 7.0 0.00 0.00 0.00 30 1004.2
20260509024518 64 135 3.0 9.0 0.00 0.00 0.00 30 1004.2
20260509023518 65 135 3.0 8.0 0.00 0.00 0.00 29 1004.0
20260509022517 65 158 4.0 10.0 0.00 0.00 0.00 28 1003.8
20260509021517 66 135 4.0 8.0 0.00 0.00 0.00 27 1003.7
20260509020519 67 135 3.0 9.0 0.00 0.00 0.00 26 1003.4
20260509015517 67 135 5.0 10.0 0.00 0.00 0.00 26 1003.2
20260509014517 68 135 4.0 9.0 0.00 0.00 0.00 25 1002.9
20260509013517 69 135 4.0 11.0 0.00 0.00 0.00 25 1002.8
20260509012517 69 135 5.0 12.0 0.00 0.00 0.00 24 1002.8
20260509011537 70 158 5.0 12.0 0.00 0.00 0.00 24 1002.6
20260509010517 70 135 6.0 11.0 0.00 0.00 0.00 25 1002.5
20260509005517 71 135 7.0 14.0 0.00 0.00 0.00 24 1002.4
20260509004517 71 135 4.0 10.0 0.00 0.00 0.00 25 1002.3
20260509003517 72 135 7.0 17.0 0.00 0.00 0.00 25 1002.1
20260509002537 72 135 8.0 16.0 0.00 0.00 0.00 26 1001.9
20260509001518 73 135 6.0 11.0 0.00 0.00 0.00 27 1001.9
20260509000517 73 135 7.0 15.0 0.00 0.00 0.00 26 1001.9
20260508235517 73 135 8.0 17.0 0.00 0.00 0.00 26 1001.8
20260508234518 74 135 8.0 16.0 0.00 0.00 0.00 25 1001.9
20260508233517 74 135 9.0 16.0 0.00 0.00 0.00 25 1002.0
20260508232517 74 135 6.0 12.0 0.00 0.00 0.00 26 1001.9
20260508231557 74 135 9.0 22.0 0.00 0.00 0.00 25 1002.0